When you browse on this site, cookies collect data to enhance your experience and personalize the content and advertising you see.
Visit our Privacy Policy to learn more. By continuing to use the site, you agree to this use of cookies and data.
  • In Romania
  • List of Countries
  • For 7 days
  • Water Temperature
  • Weather Map
  • Weather Widgets
  • user-avatar
    Login

    Hourly Weather Brecon

    Today, 4 June, Thursday

    Time Temperature Precipitation Wind Pressure Humidity
    00:00 +8°C° 0 mm 3 mps 741 mmHg 93%
    01:00 +8°C° 0 mm 3 mps 740 mmHg 92%
    02:00 +7°C° 0 mm 3 mps 740 mmHg 92%
    03:00 +5°C° 0 mm 3 mps 739 mmHg 92%
    04:00 +7°C° 0 mm 3 mps 739 mmHg 91%
    05:00 +8°C° 0 mm 3 mps 739 mmHg 89%
    06:00 +9°C° 0 mm 3 mps 739 mmHg 88%
    07:00 +10°C° 0 mm 3 mps 739 mmHg 83%
    08:00 +11°C° 0 mm 4 mps 739 mmHg 78%
    09:00 +12°C° 0 mm 4 mps 739 mmHg 73%
    10:00 +12°C° 0 mm 5 mps 739 mmHg 70%
    11:00 +13°C° 0 mm 6 mps 738 mmHg 67%
    12:00 +12°C° 0 mm 7 mps 738 mmHg 65%
    13:00 +12°C° 0 mm 7 mps 737 mmHg 67%
    14:00 +12°C° 0 mm 7 mps 737 mmHg 69%
    15:00 +12°C° 0 mm 7 mps 736 mmHg 71%
    16:00 +11°C° 0 mm 7 mps 736 mmHg 75%
    17:00 +11°C° 0 mm 6 mps 736 mmHg 80%
    18:00 +10°C° 0 mm 6 mps 735 mmHg 84%
    19:00 +10°C° 0 mm 5 mps 735 mmHg 87%
    20:00 +9°C° 0 mm 5 mps 735 mmHg 89%
    21:00 +10°C° 0 mm 4 mps 735 mmHg 92%
    22:00 +10°C° 0 mm 4 mps 734 mmHg 93%
    23:00 +10°C° 0 mm 4 mps 734 mmHg 93%

    Tomorrow, 5 June, Friday

    Time Temperature Precipitation Wind Pressure Humidity
    00:00 +8°C° 0 mm 5 mps 734 mmHg 94%
    01:00 +8°C° 0 mm 5 mps 734 mmHg 93%
    02:00 +7°C° 0 mm 5 mps 733 mmHg 93%
    03:00 +6°C° 0 mm 5 mps 733 mmHg 92%
    04:00 +5°C° 0 mm 6 mps 733 mmHg 88%
    05:00 +6°C° 0 mm 7 mps 733 mmHg 85%
    06:00 +6°C° 0 mm 8 mps 733 mmHg 81%
    07:00 +7°C° 0 mm 8 mps 733 mmHg 75%
    08:00 +8°C° 0 mm 9 mps 733 mmHg 69%
    09:00 +10°C° 0 mm 9 mps 733 mmHg 63%
    10:00 +11°C° 0 mm 9 mps 733 mmHg 61%
    11:00 +11°C° 0 mm 9 mps 733 mmHg 59%
    12:00 +12°C° 0 mm 8 mps 733 mmHg 57%
    13:00 +12°C° 0.1 mm 9 mps 733 mmHg 59%
    14:00 +12°C° 0.1 mm 9 mps 733 mmHg 60%
    15:00 +12°C° 0.1 mm 9 mps 733 mmHg 62%
    16:00 +11°C° 0.2 mm 8 mps 733 mmHg 67%
    17:00 +10°C° 0.2 mm 8 mps 733 mmHg 72%
    18:00 +9°C° 0.2 mm 7 mps 733 mmHg 77%
    19:00 +8°C° 0.1 mm 7 mps 733 mmHg 79%
    20:00 +5°C° 0.1 mm 6 mps 734 mmHg 82%
    21:00 +5°C° 0.1 mm 5 mps 734 mmHg 85%
    22:00 +3°C° 0 mm 5 mps 734 mmHg 86%
    23:00 +3°C° 0 mm 5 mps 734 mmHg 87%

    Day after tomorrow, 6 June, Saturday

    Time Temperature Precipitation Wind Pressure Humidity
    00:00 +2°C° 0 mm 6 mps 734 mmHg 88%
    01:00 +2°C° 0 mm 6 mps 734 mmHg 86%
    02:00 +2°C° 0 mm 7 mps 734 mmHg 84%
    03:00 +1°C° 0 mm 8 mps 734 mmHg 83%
    04:00 +2°C° 0 mm 9 mps 734 mmHg 83%
    05:00 +3°C° 0 mm 10 mps 733 mmHg 83%
    06:00 +3°C° 0 mm 10 mps 733 mmHg 83%
    07:00 +5°C° 0.4 mm 10 mps 733 mmHg 85%
    08:00 +5°C° 0.4 mm 10 mps 733 mmHg 88%
    09:00 +6°C° 0.4 mm 10 mps 733 mmHg 91%
    10:00 +6°C° 0.7 mm 10 mps 733 mmHg 91%
    11:00 +7°C° 0.7 mm 9 mps 733 mmHg 92%
    12:00 +8°C° 0.7 mm 9 mps 733 mmHg 92%
    13:00 +9°C° 0.3 mm 8 mps 734 mmHg 91%
    14:00 +9°C° 0.3 mm 8 mps 734 mmHg 90%
    15:00 +9°C° 0.3 mm 8 mps 734 mmHg 90%
    16:00 +10°C° 0.1 mm 8 mps 734 mmHg 87%
    17:00 +10°C° 0.1 mm 8 mps 735 mmHg 85%
    18:00 +11°C° 0.1 mm 8 mps 735 mmHg 83%
    19:00 +10°C° 0 mm 7 mps 736 mmHg 86%
    20:00 +9°C° 0 mm 6 mps 736 mmHg 89%
    21:00 +8°C° 0 mm 6 mps 737 mmHg 92%
    22:00 +8°C° 0 mm 5 mps 737 mmHg 93%
    23:00 +7°C° 0 mm 5 mps 737 mmHg 94%

    7 June, Sunday

    Time Temperature Precipitation Wind Pressure Humidity
    00:00 +7°C° 0 mm 4 mps 737 mmHg 96%
    01:00 +7°C° 0 mm 4 mps 737 mmHg 96%
    02:00 +7°C° 0 mm 4 mps 737 mmHg 96%
    03:00 +8°C° 0 mm 3 mps 738 mmHg 96%
    04:00 +9°C° 0 mm 3 mps 738 mmHg 95%
    05:00 +9°C° 0 mm 3 mps 738 mmHg 93%
    06:00 +10°C° 0 mm 3 mps 738 mmHg 92%
    07:00 +11°C° 0.1 mm 4 mps 739 mmHg 89%
    08:00 +12°C° 0.1 mm 4 mps 739 mmHg 85%
    09:00 +13°C° 0.1 mm 5 mps 740 mmHg 81%
    10:00 +14°C° 0.3 mm 5 mps 740 mmHg 80%
    11:00 +15°C° 0.3 mm 4 mps 741 mmHg 78%
    12:00 +17°C° 0.3 mm 4 mps 741 mmHg 76%
    13:00 +15°C° 1 mm 4 mps 741 mmHg 78%
    14:00 +15°C° 1 mm 5 mps 741 mmHg 80%
    15:00 +15°C° 1 mm 5 mps 742 mmHg 82%
    16:00 +14°C° 0.7 mm 5 mps 742 mmHg 83%
    17:00 +14°C° 0.7 mm 5 mps 742 mmHg 85%
    18:00 +14°C° 0.7 mm 4 mps 742 mmHg 86%
    19:00 +12°C° 0.1 mm 4 mps 743 mmHg 88%
    20:00 +11°C° 0.1 mm 3 mps 744 mmHg 90%
    21:00 +10°C° 0.1 mm 2 mps 744 mmHg 92%
    22:00 +9°C° 0 mm 2 mps 744 mmHg 92%
    23:00 +9°C° 0 mm 2 mps 745 mmHg 93%

    8 June, Monday

    Time Temperature Precipitation Wind Pressure Humidity
    00:00 +8°C° 0 mm 2 mps 745 mmHg 93%
    01:00 +8°C° 0 mm 2 mps 745 mmHg 93%
    02:00 +8°C° 0 mm 1 mps 745 mmHg 93%
    03:00 +8°C° 0 mm 1 mps 745 mmHg 93%
    04:00 +8°C° 0 mm 1 mps 746 mmHg 92%
    05:00 +9°C° 0 mm 1 mps 746 mmHg 91%
    06:00 +10°C° 0 mm 1 mps 746 mmHg 90%
    07:00 +11°C° 0 mm 1 mps 747 mmHg 88%
    08:00 +12°C° 0 mm 1 mps 747 mmHg 85%
    09:00 +13°C° 0 mm 1 mps 747 mmHg 82%
    10:00 +13°C° 0.2 mm 2 mps 747 mmHg 82%
    11:00 +14°C° 0.2 mm 2 mps 748 mmHg 81%
    12:00 +14°C° 0.2 mm 2 mps 748 mmHg 80%
    13:00 +14°C° 0.2 mm 2 mps 748 mmHg 80%
    14:00 +14°C° 0.2 mm 1 mps 748 mmHg 81%
    15:00 +14°C° 0.2 mm 1 mps 748 mmHg 82%
    16:00 +14°C° 0.1 mm 1 mps 748 mmHg 82%
    17:00 +14°C° 0.1 mm 1 mps 748 mmHg 82%
    18:00 +14°C° 0.1 mm 1 mps 748 mmHg 82%
    19:00 +13°C° 0.1 mm 1 mps 748 mmHg 84%
    20:00 +12°C° 0.1 mm 1 mps 748 mmHg 86%
    21:00 +11°C° 0.1 mm 1 mps 749 mmHg 88%
    22:00 +11°C° 0 mm 1 mps 749 mmHg 89%
    23:00 +10°C° 0 mm 1 mps 749 mmHg 89%

    9 June, Tuesday

    Time Temperature Precipitation Wind Pressure Humidity
    00:00 +9°C° 0 mm 2 mps 749 mmHg 90%
    01:00 +9°C° 0 mm 2 mps 749 mmHg 89%
    02:00 +8°C° 0 mm 2 mps 749 mmHg 88%
    03:00 +8°C° 0 mm 2 mps 749 mmHg 87%
    04:00 +8°C° 0 mm 2 mps 749 mmHg 86%
    05:00 +8°C° 0 mm 2 mps 749 mmHg 86%
    06:00 +9°C° 0 mm 2 mps 750 mmHg 85%
    07:00 +9°C° 0 mm 2 mps 750 mmHg 82%
    08:00 +10°C° 0 mm 2 mps 750 mmHg 79%
    09:00 +12°C° 0 mm 2 mps 750 mmHg 75%
    10:00 +12°C° 0 mm 2 mps 750 mmHg 72%
    11:00 +13°C° 0 mm 2 mps 750 mmHg 69%
    12:00 +14°C° 0 mm 1 mps 750 mmHg 67%
    13:00 +15°C° 0 mm 1 mps 750 mmHg 65%
    14:00 +15°C° 0 mm 1 mps 750 mmHg 64%
    15:00 +15°C° 0 mm 1 mps 750 mmHg 63%
    16:00 +15°C° 0 mm 1 mps 750 mmHg 67%
    17:00 +15°C° 0 mm 1 mps 750 mmHg 70%
    18:00 +14°C° 0 mm 1 mps 750 mmHg 73%
    19:00 +13°C° 0 mm 1 mps 751 mmHg 77%
    20:00 +12°C° 0 mm 1 mps 751 mmHg 80%
    21:00 +10°C° 0 mm 0 mps 751 mmHg 83%
    22:00 +10°C° 0 mm 1 mps 751 mmHg 84%
    23:00 +9°C° 0 mm 1 mps 751 mmHg 86%
    Show more